Hourly Data Report for October 09, 2016

All times are specified in Local Standard Time (LST). Add 1 hour to adjust for Daylight Saving Time where and when it is observed.

QIKIQTARJUAQ A
NUNAVUT

67°32'48.000" N
64°01'54.000" W
5.50 m
2400577
YVM

Download Data

Hourly Data (October 2016)
Hourly Data Report for October 9, 2016
Temp Definition
°C
Dew Point Temp Definition
°C
Rel Hum Definition
%
Wind Dir Definition
10's deg

Wind Spd Definition
km/h
Visibility Definition
km
Stn Press Definition
kPa
Hmdx Definition


Wind Chill Definition


Weather Definition


TIME
00:00 Legend Double Dagger -1.1 -1.2 99 LegendMM 4 2.0 100.51   -2 Snow
01:00 Legend Double Dagger -1.2 -1.3 99 11 4 2.4 100.51   -3 Snow
02:00 Legend Double Dagger -1.2 -1.3 99   0 3.6 100.52     Snow
03:00 Legend Double Dagger -1.2 -1.3 99   0 3.2 100.53     Snow
04:00 Legend Double Dagger -1.1 -1.5 97 19 5 2.8 100.55   -3 Snow
05:00 Legend Double Dagger -1.4 -1.5 99 LegendMM 4 9.7 100.60   -3 Snow
06:00 Legend Double Dagger -1.3 -1.7 97 13 5 3.2 100.65   -3 Snow
07:00 Legend Double Dagger -1.3 -1.4 99   0 1.2 100.69     Snow
08:00 Legend Double Dagger -1.4 -1.4 100 30 4 0.8 100.73   -3 Moderate Snow
09:00 Legend Double Dagger -0.6 -0.6 100 LegendMM 22 2.0 100.72   -6 Snow
10:00 Legend Double Dagger 0.2 -0.9 92 36 24 4.0 100.74     Snow
11:00 Legend Double Dagger 0.4 -1.3 89 35 28 11.3 100.74     Snow
12:00 Legend Double Dagger 0.3 -1.8 86 36 17 16.1 100.77     LegendNANA
13:00 Legend Double Dagger 0.1 -1.5 89 35 22 16.1 100.79     Rain
14:00 Legend Double Dagger 0.1 -1.6 89 1 24 16.1 100.81     LegendNANA
15:00 Legend Double Dagger 0.2 -3.0 79 35 18 16.1 100.83     LegendNANA
16:00 Legend Double Dagger -0.2 -3.1 81 35 15 16.1 100.86   -5 LegendNANA
17:00 Legend Double Dagger -0.3 -2.4 86 36 18 16.1 100.88   -5 LegendNANA
18:00 Legend Double Dagger -0.6 -3.1 83 32 11 16.1 100.86   -4 LegendNANA
19:00 Legend Double Dagger -3.7 -5.9 85 LegendMM 4 16.1 100.87   -5 LegendNANA
20:00 Legend Double Dagger -4.6 -6.0 90 13 9 16.1 100.86   -8 LegendNANA
21:00 Legend Double Dagger -5.3 -7.4 85 14 11 16.1 100.85   -10 LegendNANA
22:00 Legend Double Dagger -5.1 -7.4 84   0 16.1 100.82     LegendNANA
23:00 Legend Double Dagger -5.1 -7.5 83 14 9 16.1 100.81   -9 LegendNANA

Notes on Data Quality.

Legend

  • E = Estimated
  • M = Missing
  • NA = Not Available
  • ‡ = Partner data that is not subject to review by the National Climate Archives
Date modified: